This demonstration page uses our WeatherBlox Daily Observations layout. Learn more.

Left ArrowRight Arrow

39.08367, -84.50855

Hourly Observations for January 1, 2021

Temp ( °F °C ) Dew Point ( °F °C ) Humidity (%) Winds ( mph kmh ) Pressure ( in mb ) Visibility ( mi km ) Precip ( " mm )
12:53 am 00:53 Cloudy 33 0.6 27 -2.8 78 78 ENE 7 11 30.33 1027 10 16 N/A
1:50 am 01:50 Mostly Cloudy 32 undefined 27 -3 80 80 ENE 9 15 30.32 1027 10 16 N/A
1:53 am 01:53 Cloudy 33 0.6 27 -2.8 78 78 ENE 8 13 30.30 1026 10 16 N/A
2:53 am 02:53 Cloudy 33 0.6 27 -2.8 78 78 NE 13 20 30.28 1025 10 16 N/A
3:53 am 03:53 Cloudy 33 0.6 27 -2.8 78 78 NE 7 11 30.27 1025 10 16 N/A
4:53 am 04:53 Mostly Cloudy 34 1.1 27 -2.8 76 76 NE 9 15 30.24 1024 10 16 N/A
5:53 am 05:53 Cloudy with Light Rain 33 0.6 29 -1.7 85 85 E 6 9 30.21 1023 8 13 0.02 0.51
6:36 am 06:36 Cloudy with Rain 33 0.6 30 -1.1 89 89 NE 9 15 30.17 1022 5 8 0.07 1.78
6:46 am 06:46 Cloudy with Light Rain 33 0.6 30 -1.1 89 89 NE 10 17 30.16 1021 6 10 0.08 2.03
6:53 am 06:53 Cloudy with Light Rain 33 0.6 30 -1.1 89 89 NE 10 17 30.14 1021 6 10 0.08 2.03
7:53 am 07:53 Cloudy with Rain 34 1.1 32 undefined 92 92 NE 7 11 30.11 1020 4 6 0.11 2.79
8:53 am 08:53 Cloudy with Heavy Rain 34 1.1 33 0.6 97 97 NE 8 13 30.08 1019 3 5 0.22 5.59
9:53 am 09:53 Cloudy with Rain 35 1.7 33 0.6 93 93 E 9 15 30.06 1018 3 5 0.20 5.08
10:53 am 10:53 Cloudy with Rain 37 2.8 35 1.7 93 93 N N/A 30.00 1016 3 5 0.31 7.87
11:53 am 11:53 Cloudy with Light Rain 40 4.4 38 3.3 93 93 ENE 3 6 29.94 1014 10 16 0.08 2.03
12:53 pm 12:53 Cloudy 43 6.1 41 5 93 93 N N/A 29.87 1012 10 16 0.04 1.02
1:53 pm 13:53 Cloudy 46 7.8 42 5.6 86 86 VRB 3 6 29.84 1011 10 16 N/A
2:53 pm 14:53 Cloudy 48 8.9 45 7.2 89 89 VRB 3 6 29.80 1009 10 16 N/A
3:53 pm 15:53 Partly Cloudy 51 10.6 46 7.8 83 83 N 6 9 29.77 1008 10 16 N/A
4:53 pm 16:53 Partly Cloudy 51 10.6 47 8.3 86 86 NE 3 6 29.74 1007 10 16 N/A
5:53 pm 17:53 Cloudy 47 8.3 46 7.8 97 97 N N/A 29.71 1006 8 13 0.00 0.00
6:53 pm 18:53 Cloudy with Light Rain 47 8.3 46 7.8 97 97 N N/A 29.67 1005 9 14 0.02 0.51
7:20 pm 19:20 Cloudy with Light Rain 52 11.1 50 10 93 93 WSW 13 20 29.75 1007 4 6 0.10 2.54
7:53 pm 19:53 Cloudy 52 11.1 49 9.4 89 89 W 14 22 29.77 1008 10 16 0.11 2.79
8:53 pm 20:53 Cloudy 50 10 45 7.2 83 83 W 13 20 29.80 1009 10 16 N/A
9:53 pm 21:53 Cloudy 50 10 44 6.7 80 80 SW 13 20 29.81 1010 10 16 N/A
10:53 pm 22:53 Mostly Cloudy 48 8.9 40 4.4 74 74 WSW 17 28 29.85 1011 10 16 N/A
11:02 pm 23:02 Mostly Cloudy 48 8.9 40 4.4 74 74 WSW 21 33 29.86 1011 10 16 N/A
11:12 pm 23:12 Mostly Cloudy 48 8.9 40 4.4 74 74 W 22 35 29.87 1012 10 16 N/A
11:53 pm 23:53 Cloudy 47 8.3 39 3.9 74 74 SW 13 20 29.88 1012 10 16 N/A

Powered by AerisWeather